Starlink 35456

operational
NORAD ID: 65867 Int'l Des: 2025-223 Owner: SPXS Country: US Constellation: starlink
LEOCIRCULAR

About Starlink 35456

Description loading...

Live Position

Loading 3D Globe...

Upcoming Passes

Altitude History

Altitude vs Time

uPlot chart will show altitude changes over time

Two-Line Element Set

1 65867U 25223P 26061.15538154 .00034024 00000-0 11559-2 0 9999
2 65867 53.1592 329.0595 0001142 89.1160 270.9972 15.30193114 23059
Epoch: Mar 2, 2026 • Age: 28 hours

Current Status

Altitude 480.7 km
Velocity 7.63 km/s
Sub-Earth Point 52.67°N, 172.83°W
Launch Date Oct 3, 2025
Age 0.4 years
Type internet

Technical Details

Classification Payload
Mass 575.00 kg
Dry Mass 530.00 kg
Total Mass 575.00 kg
Length 0.30 m
Diameter 4.10 m
Span 29.00 m
Shape Box + pan
Manufacturer SPXS
Bus Type Starlink V2MO
Phase Status In Orbit
Owner/State SPXS/US

Large Constellations

Loading constellations...